TimeEDT,TemperatureF,Dew PointF,Humidity,Sea Level PressureIn,VisibilityMPH,Wind Direction,Wind SpeedMPH,Gust SpeedMPH,PrecipitationIn,Events,Conditions,WindDirDegrees,DateUTC
12:53 AM,34.0,30.9,89,30.04,10.0,ESE,3.5,-,N/A,,Clear,120,2013-03-10 05:53:00
1:53 AM,35.1,30.9,85,30.03,9.0,East,3.5,-,N/A,,Mostly Cloudy,80,2013-03-10 06:53:00
3:53 AM,34.0,30.9,89,30.01,9.0,Calm,Calm,-,N/A,,Clear,0,2013-03-10 07:53:00
4:53 AM,34.0,30.9,89,29.99,8.0,Calm,Calm,-,N/A,,Mostly Cloudy,0,2013-03-10 08:53:00
5:53 AM,34.0,30.9,89,29.99,8.0,Calm,Calm,-,N/A,,Overcast,0,2013-03-10 09:53:00
6:53 AM,37.9,32.0,79,29.99,10.0,Calm,Calm,-,0.00,Rain,Light Rain,0,2013-03-10 10:53:00
8:53 AM,37.9,34.0,86,30.01,10.0,South,5.8,-,N/A,,Overcast,190,2013-03-10 12:53:00
9:53 AM,43.0,36.0,76,29.98,10.0,South,5.8,-,N/A,,Mostly Cloudy,180,2013-03-10 13:53:00
10:53 AM,50.0,37.9,63,29.97,10.0,South,13.8,-,N/A,,Clear,190,2013-03-10 14:53:00
11:53 AM,53.1,39.0,59,29.96,10.0,SSW,15.0,-,N/A,,Clear,200,2013-03-10 15:53:00
12:53 PM,55.9,39.0,53,29.95,10.0,SW,20.7,32.2,N/A,,Clear,220,2013-03-10 16:53:00
1:53 PM,57.0,41.0,55,29.93,10.0,SW,15.0,-,N/A,,Partly Cloudy,230,2013-03-10 17:53:00
2:53 PM,57.0,42.1,57,29.93,10.0,SW,15.0,-,N/A,,Clear,230,2013-03-10 18:53:00
3:53 PM,59.0,45.0,60,29.92,10.0,SW,11.5,-,N/A,,Mostly Cloudy,230,2013-03-10 19:53:00
4:53 PM,59.0,42.1,53,29.88,10.0,SSW,11.5,-,N/A,,Clear,200,2013-03-10 20:53:00
5:53 PM,57.0,42.1,57,29.90,10.0,South,10.4,-,N/A,,Clear,190,2013-03-10 21:53:00
6:53 PM,54.0,41.0,62,29.88,10.0,South,9.2,-,N/A,,Clear,180,2013-03-10 22:53:00
7:53 PM,51.1,39.0,63,29.87,10.0,South,9.2,-,N/A,,Clear,180,2013-03-10 23:53:00
8:53 PM,51.1,39.0,63,29.87,10.0,South,9.2,-,N/A,,Clear,180,2013-03-11 00:53:00
9:53 PM,52.0,39.0,61,29.84,10.0,South,10.4,-,N/A,,Mostly Cloudy,180,2013-03-11 01:53:00
10:53 PM,52.0,37.9,59,29.82,10.0,South,11.5,-,N/A,,Scattered Clouds,190,2013-03-11 02:53:00
11:53 PM,55.0,39.9,57,29.82,10.0,SSW,16.1,26.5,0.00,Rain,Light Rain,200,2013-03-11 03:53:00
12:53 AM,53.1,42.1,66,29.82,10.0,SW,11.5,-,0.02,Rain,Light Rain,220,2013-03-11 04:53:00